This demonstration page uses our WeatherBlox Daily Observations layout. Learn more.

38.89511, -77.03637

Hourly Observations for October 24, 2018

Temp ( °F °C ) Dew Point ( °F °C ) Humidity (%) Winds ( mph kmh ) Pressure ( in mb ) Visibility ( mi km ) Precip ( " mm )
12:52 am 00:52 Mostly Clear 53 11.7 33 0.6 47 47 NW 9 15 30.13 1020 10 16.0934 0 0
1:52 am 01:52 Mostly Clear 53 11.7 33 0.6 47 47 W 7 11 30.14 1021 10 16.0934 0 0
2:52 am 02:52 Mostly Clear 51 10.6 34 1.1 52 52 WNW 8 13 30.15 1021 10 16.0934 0 0
3:52 am 03:52 Partly Cloudy 50 10 34 1.1 54 54 WNW 9 15 30.15 1021 10 16.0934 0 0
4:52 am 04:52 Mostly Clear 48 8.9 34 1.1 58 58 NNW 7 11 30.17 1022 10 16.0934 0 0
5:52 am 05:52 Mostly Clear 49 9.4 34 1.1 56 56 NW 9 15 30.18 1022 10 16.0934 0 0
6:52 am 06:52 Mostly Clear 48 8.9 35 1.7 61 61 WNW 8 13 30.19 1023 10 16.0934 0 0
7:52 am 07:52 Mostly Sunny 48 8.9 35 1.7 61 61 NW 9 15 30.21 1023 10 16.0934 0 0
8:52 am 08:52 Mostly Sunny 51 10.6 34 1.1 52 52 NW 9 15 30.22 1024 10 16.0934 0 0
9:52 am 09:52 Mostly Sunny 52 11.1 32 0 47 47 WNW 18 30 30.24 1024 10 16.0934 0 0
10:52 am 10:52 Mostly Cloudy 52 11.1 31 -0.6 45 45 NW 18 30 30.24 1024 10 16.0934 0 0
11:52 am 11:52 Mostly Cloudy 55 12.8 32 0 42 42 NNW 13 20 30.24 1024 10 16.0934 0 0
12:52 pm 12:52 Mostly Cloudy 56 13.3 31 -0.6 39 39 NW 14 22 30.23 1024 10 16.0934 0 0
1:52 pm 13:52 Partly Cloudy 57 13.9 32 0 39 39 WNW 17 28 30.21 1023 10 16.0934 0 0
2:52 pm 14:52 Mostly Sunny 58 14.4 32 0 38 38 N 20 31 30.19 1022 10 16.0934 0 0
3:52 pm 15:52 Mostly Sunny 57 13.9 30 -1.1 36 36 NW 21 33 30.19 1023 10 16.0934 0 0
4:52 pm 16:52 Partly Cloudy 56 13.3 30 -1.1 37 37 NNW 17 28 30.2 1023 10 16.0934 0 0
5:52 pm 17:52 Mostly Sunny 55 12.8 30 -1.1 38 38 NNW 15 24 30.22 1023 10 16.0934 0 0
6:52 pm 18:52 Mostly Clear 52 11.1 32 0 47 47 N 13 20 30.23 1024 10 16.0934 0 0
7:52 pm 19:52 Mostly Clear 50 10 31 -0.6 48 48 N 12 19 30.24 1024 10 16.0934 0 0
8:52 pm 20:52 Mostly Clear 50 10 31 -0.6 48 48 N 13 20 30.24 1024 10 16.0934 0 0
9:52 pm 21:52 Mostly Clear 48 8.9 31 -0.6 52 52 N 8 13 30.27 1025 10 16.0934 0 0
10:52 pm 22:52 Clear 46 7.8 32 0 58 58 N 9 15 30.27 1025 10 16.0934 0 0

Powered by AerisWeather